TimeCST,TemperatureF,Dew PointF,Humidity,Sea Level PressureIn,VisibilityMPH,Wind Direction,Wind SpeedMPH,Gust SpeedMPH,PrecipitationIn,Events,Conditions,WindDirDegrees,DateUTC
12:15 AM,24.8,22.6,91,30.03,5.0,NNW,3.5,-,N/A,Snow,Light Snow,340,2014-03-01 06:15:00
12:35 AM,24.8,22.6,91,30.04,4.0,NNW,4.6,-,N/A,Snow,Light Snow,340,2014-03-01 06:35:00
12:55 AM,24.8,22.8,92,30.04,0.8,Calm,Calm,-,N/A,Snow,Snow,0,2014-03-01 06:55:00
1:15 AM,24.6,22.6,92,30.04,0.8,Calm,Calm,-,N/A,Snow,Snow,0,2014-03-01 07:15:00
1:35 AM,24.4,22.5,92,30.04,1.8,NNW,6.9,-,N/A,Snow,Light Snow,340,2014-03-01 07:35:00
1:55 AM,23.9,21.7,91,30.04,2.5,NNW,8.1,-,N/A,Snow,Light Snow,340,2014-03-01 07:55:00
2:15 AM,23.7,21.2,90,30.03,7.0,NNW,9.2,-,N/A,,Overcast,340,2014-03-01 08:15:00
2:35 AM,23.7,20.3,87,30.04,10.0,NNW,10.4,-,N/A,,Overcast,340,2014-03-01 08:35:00
2:55 AM,23.2,19.6,86,30.05,10.0,NNW,10.4,-,N/A,,Mostly Cloudy,340,2014-03-01 08:55:00
3:15 AM,21.7,18.3,87,30.06,10.0,NNW,9.2,-,N/A,,Overcast,340,2014-03-01 09:15:00
3:35 AM,21.6,18.0,86,30.07,10.0,NNW,9.2,-,N/A,,Overcast,340,2014-03-01 09:35:00
3:55 AM,21.2,17.6,86,30.08,10.0,NNW,10.4,-,N/A,,Overcast,340,2014-03-01 09:55:00
4:15 AM,21.2,17.1,84,30.09,10.0,North,9.2,-,N/A,,Overcast,350,2014-03-01 10:15:00
4:35 AM,21.2,17.1,84,30.10,10.0,North,6.9,-,N/A,,Overcast,350,2014-03-01 10:35:00
4:55 AM,21.2,17.1,84,30.11,10.0,North,5.8,-,N/A,,Overcast,360,2014-03-01 10:55:00
5:15 AM,20.8,16.0,81,30.12,10.0,North,9.2,-,N/A,,Overcast,350,2014-03-01 11:15:00
5:35 AM,19.9,15.1,81,30.13,10.0,North,9.2,-,N/A,,Overcast,350,2014-03-01 11:35:00
5:55 AM,19.6,13.8,78,30.13,10.0,North,12.7,16.1,N/A,,Overcast,360,2014-03-01 11:55:00
6:15 AM,18.5,13.1,79,30.14,10.0,North,9.2,20.7,N/A,,Overcast,360,2014-03-01 12:15:00
6:35 AM,18.5,12.6,78,30.16,10.0,North,9.2,16.1,N/A,,Overcast,350,2014-03-01 12:35:00
6:55 AM,18.5,12.7,78,30.18,10.0,North,12.7,-,N/A,,Overcast,360,2014-03-01 12:55:00
7:15 AM,16.2,9.1,74,30.20,10.0,North,9.2,18.4,N/A,,Overcast,360,2014-03-01 13:15:00
7:35 AM,16.2,8.8,73,30.21,10.0,North,9.2,-,N/A,,Overcast,360,2014-03-01 13:35:00
7:55 AM,16.2,8.6,72,30.22,10.0,North,9.2,-,N/A,,Overcast,350,2014-03-01 13:55:00
8:15 AM,16.2,7.7,69,30.23,10.0,North,11.5,-,N/A,,Overcast,360,2014-03-01 14:15:00
8:35 AM,16.2,7.9,70,30.23,10.0,North,13.8,17.3,N/A,,Overcast,10,2014-03-01 14:35:00
8:55 AM,16.2,7.5,69,30.24,10.0,NNE,11.5,-,N/A,,Mostly Cloudy,20,2014-03-01 14:55:00
9:15 AM,16.2,7.2,68,30.23,10.0,North,10.4,-,N/A,,Scattered Clouds,10,2014-03-01 15:15:00
9:35 AM,16.2,7.5,69,30.26,10.0,North,9.2,-,N/A,,Scattered Clouds,350,2014-03-01 15:35:00
9:55 AM,16.2,6.8,67,30.27,10.0,North,10.4,-,N/A,,Scattered Clouds,350,2014-03-01 15:55:00
10:15 AM,16.2,6.8,67,30.27,10.0,North,11.5,-,N/A,,Scattered Clouds,360,2014-03-01 16:15:00
10:35 AM,16.2,7.0,67,30.26,10.0,NNW,9.2,-,N/A,,Mostly Cloudy,340,2014-03-01 16:35:00
11:00 AM,16.2,5.9,64,30.27,10.0,North,11.5,-,N/A,,Mostly Cloudy,10,2014-03-01 17:00:00
11:15 AM,16.2,6.6,66,30.28,10.0,North,8.1,-,N/A,,Mostly Cloudy,360,2014-03-01 17:15:00
11:35 AM,16.2,5.0,62,30.28,10.0,North,9.2,18.4,N/A,,Scattered Clouds,350,2014-03-01 17:35:00
11:55 AM,16.2,4.6,61,30.28,10.0,North,9.2,16.1,N/A,,Clear,350,2014-03-01 17:55:00
12:15 PM,16.2,5.4,62,30.28,10.0,North,9.2,-,N/A,,Clear,350,2014-03-01 18:15:00
12:35 PM,15.1,6.8,70,30.27,4.0,North,9.2,-,N/A,Snow,Light Snow,350,2014-03-01 18:35:00
1:00 PM,14.0,7.7,76,30.27,3.0,North,10.4,-,N/A,Snow,Light Snow,350,2014-03-01 19:00:00
1:15 PM,14.0,9.3,82,30.28,1.2,NNW,10.4,-,N/A,Snow,Light Snow,340,2014-03-01 19:15:00
1:35 PM,13.8,9.5,83,30.29,1.0,North,8.1,-,N/A,Snow,Light Snow,350,2014-03-01 19:35:00
1:55 PM,13.6,9.5,84,30.30,1.0,NNW,15.0,-,N/A,Snow,Light Snow,330,2014-03-01 19:55:00
2:15 PM,13.8,9.7,84,30.28,0.5,NNW,13.8,17.3,N/A,Snow,Snow,330,2014-03-01 20:15:00
2:35 PM,13.6,9.5,84,30.27,1.8,NNW,8.1,-,N/A,Snow,Light Snow,340,2014-03-01 20:35:00
2:55 PM,13.6,9.5,84,30.28,1.2,North,8.1,-,N/A,Snow,Light Snow,360,2014-03-01 20:55:00
3:15 PM,13.6,9.5,84,30.29,2.5,North,9.2,-,N/A,Snow,Light Snow,350,2014-03-01 21:15:00
3:40 PM,13.6,9.0,82,30.30,1.5,North,10.4,-,N/A,Snow,Light Snow,350,2014-03-01 21:40:00
3:55 PM,13.6,9.5,84,30.29,2.0,North,9.2,-,N/A,Snow,Light Snow,360,2014-03-01 21:55:00
4:15 PM,13.6,8.6,80,30.30,4.0,NNW,9.2,-,N/A,Snow,Light Snow,340,2014-03-01 22:15:00
4:35 PM,13.6,9.3,83,30.31,2.0,NNW,9.2,-,N/A,Snow,Light Snow,340,2014-03-01 22:35:00
4:55 PM,13.6,8.8,81,30.32,2.0,North,10.4,-,N/A,Snow,Light Snow,350,2014-03-01 22:55:00
5:15 PM,13.6,9.7,84,30.32,1.0,North,5.8,-,N/A,Snow,Light Snow,360,2014-03-01 23:15:00
5:35 PM,13.6,10.2,86,30.31,0.5,North,8.1,-,N/A,Snow,Light Snow,350,2014-03-01 23:35:00
5:55 PM,11.1,7.5,85,30.32,1.2,North,6.9,-,N/A,Snow,Light Snow,350,2014-03-01 23:55:00
6:15 PM,11.1,7.5,85,30.33,2.0,NNW,6.9,-,N/A,Snow,Light Snow,340,2014-03-02 00:15:00
6:35 PM,11.1,7.7,86,30.34,1.2,North,8.1,-,N/A,Snow,Light Snow,350,2014-03-02 00:35:00
6:55 PM,11.1,7.7,86,30.34,1.5,North,6.9,-,N/A,Snow,Light Snow,350,2014-03-02 00:55:00
7:15 PM,11.1,7.7,86,30.33,2.0,North,5.8,-,N/A,Snow,Light Snow,360,2014-03-02 01:15:00
7:35 PM,11.1,7.7,86,30.34,2.0,North,5.8,-,N/A,Snow,Light Snow,350,2014-03-02 01:35:00
7:55 PM,11.1,7.5,85,30.35,5.0,North,5.8,-,N/A,Snow,Light Snow,350,2014-03-02 01:55:00
8:20 PM,11.1,7.2,84,30.36,10.0,North,5.8,-,N/A,,Overcast,350,2014-03-02 02:20:00
8:35 PM,11.1,6.8,83,30.36,10.0,North,3.5,-,N/A,Snow,Light Snow,350,2014-03-02 02:35:00
8:55 PM,11.1,7.0,83,30.36,10.0,North,4.6,-,N/A,,Overcast,350,2014-03-02 02:55:00
9:15 PM,11.1,6.4,81,30.36,10.0,North,5.8,-,N/A,,Overcast,360,2014-03-02 03:15:00
9:35 PM,11.1,6.8,83,30.37,4.0,North,6.9,-,N/A,Snow,Light Snow,350,2014-03-02 03:35:00
9:55 PM,11.1,7.0,83,30.36,3.0,North,6.9,-,N/A,Snow,Light Snow,350,2014-03-02 03:55:00
10:15 PM,11.1,6.6,82,30.36,3.0,North,9.2,-,N/A,Snow,Light Snow,350,2014-03-02 04:15:00
10:35 PM,10.9,6.3,81,30.35,5.0,North,6.9,-,N/A,Snow,Light Snow,360,2014-03-02 04:35:00
10:55 PM,9.9,5.5,83,30.36,5.0,North,6.9,-,N/A,Snow,Light Snow,350,2014-03-02 04:55:00
11:15 PM,9.5,5.5,84,30.35,10.0,North,8.1,-,N/A,,Mostly Cloudy,350,2014-03-02 05:15:00
11:35 PM,10.2,5.5,81,30.35,10.0,North,6.9,-,N/A,,Mostly Cloudy,360,2014-03-02 05:35:00
11:55 PM,10.2,5.7,82,30.37,5.0,NNW,6.9,-,N/A,,Haze,340,2014-03-02 05:55:00